ROMMA est une association bénévole à but non lucratif. Votre soutien est indispensable : ADHERER à ROMMA ou FAIRE un DON

Chambon - (38, Isère)

Oisans (2460 m)   Longitude: 06° 10' 42" E   Latitude: 45° 01' 32" N Station partenaire n°803
 

Détail journalier du     <<     >>

Température Humidité Vent Dir Rafale Dir. rafale Neige 1 Neige 2
Heure (°C) (%) (km/h) (km/h) (cm) (cm)
01:00 3.69223S74S03
02:00 3.29213S51S02
03:00 4.18722S66SSO03
04:00 3.59134SSO86SSO03
05:00 5.07633SSO95SSO02
06:00 4.78028SSO80SSO03
07:00 4.78223SSO63SSO03
08:00 4.78327SSO89SSO03
09:00 3.89021SSO63SSO03
10:00 4.58220S57S03
11:00 2.99216S53S03
12:00 2.2949S30SSO03
13:00 2.8896S26S03
14:00 1.6997OSO22OSO03
15:00 0.8996SSO18SO03
16:00 0.5998NE18NE03
17:00 1.3985NE34NO03
18:00 2.89311S41S03
19:00 1.6998SSO35SSO03
20:00 1.8976ENE33ENE03
21:00 1.8995ENE29ENE03
22:00 3.2925S24S03
23:00 4.98412S50SSO03
minuit 5.38318S61S03

Graphique du 21-10-2019

 

Serveur OMMA